Regional Weather Roundup
Issued by NWS Kansas City/Pleasant Hill, MO

Home | Current Version | Previous Version | Graphics & Text | Print | Product List | Glossary Off
Versions: 1 2 3 4 5 6 7 8 9 10 11 12 13 14 15 16 17 18 19 20 21 22 23 24 25 26 27 28 29 30 31 32 33 34 35 36 37 38 39 40 41 42 43 44 45 46 47 48 49 50

000
ASUS43 KEAX 191410
RWREAX

WEATHER ROUNDUP FOR EASTERN KANSAS AND NORTHWEST MISSOURI
NATIONAL WEATHER SERVICE KANSAS CITY/PLEASANT HILL MO
800 AM CST SUN FEB 19 2017

KSZ040-057-103>105-MOZ028-029-037-043-191500-
...KANSAS CITY METROPOLITAN AREA...

CITY           SKY/WX    TMP DP  RH WIND       PRES   REMARKS
K.C. INTL      PTCLDY    49  49 100 S9        29.96R FOG
K.C. DOWNTOWN  CLEAR     52  49  89 SW3       29.97R
LEES SUMMIT    CLEAR     49  49 100 S5        29.98R FOG
OLATHE - IXD   FOG       46  46 100 S8        29.97R VSB<1/4
OLATHE - OJC   FOG      N/A N/A N/A SE5       29.97R VSB 1/4
LAWRENCE       FOG       39  39 100 E3        29.96R VSB<1/4

$$

MOZ001>008-011>017-020>025-030>033-038>040-044>046-053-054-191500-
...NORTHERN AND CENTRAL MISSOURI...

CITY           SKY/WX    TMP DP  RH WIND       PRES   REMARKS
ST. JOSEPH     FOG       41  41 100 S3        29.97R VSB 3/4
WARRENSBURG    FOG       41  41 100 S3        30.00R VSB<1/4
WHITEMAN AFB   SUNNY     48  48 100 S6        29.99R FOG
CLINTON        SUNNY     46  46 100 CALM      30.01R FOG
SEDALIA        SUNNY     48  47  96 S7        30.02R FOG
WARSAW         NOT AVBL
CHILLICOTHE      N/A     40  37  89 CALM      30.00R
KIRKSVILLE     SUNNY     46  44  93 SW3       30.01R

$$

MOZ041-047>049-056>058-063>065-088>090-097-191500-
...EASTERN AND SOUTHERN MISSOURI...

CITY           SKY/WX    TMP DP  RH WIND       PRES   REMARKS
ST. LOUIS INTL MOSUNNY   49  46  90 VRB7      30.05R
SPIRIT OF STL  FOG       46  46 100 W5        30.06R VSB 1/2
COLUMBIA       SUNNY     47  46  97 S8        30.03R
JEFFERSON CITY PTSUNNY   41  41 100 SE6       30.04R FOG
ROLLA          FOG       47  47 100 S6        30.04R VSB 1/4
OSAGE BEACH    FOG       44  43  96 CALM      30.05R VSB 1/2
SPRINGFIELD    SUNNY     49  47  93 SE9       30.01R FOG
BRANSON        MOSUNNY   48  48 100 CALM      30.03R
JOPLIN         SUNNY     49  49 100 VRB5      29.98R
WEST PLAINS    FOG       42  41  96 NE5       30.06R VSB<1/4

$$

IAZ060-094-KSZ022-034>040-054-083-096-NEZ052-066-093-191500-
...KANSAS...SOUTHEAST NEBRASKA AND IOWA...

CITY           SKY/WX    TMP DP  RH WIND       PRES   REMARKS
TOPEKA         FOG       42  41  96 CALM      29.95R VSB 1
MANHATTAN      MOCLDY    42  40  92 CALM      29.92R FOG
EMPORIA        FOG       44  44 100 S7        29.95R VSB<1/4
CHANUTE        FOG       44  43  96 SE8       29.97R VSB 1/4
WICHITA        FOG       49  49 100 SE9       29.91R VSB 1/8
OMAHA          MOCLDY    46  39  76 S7        29.89R
LINCOLN        MOCLDY    44  42  93 S5        29.89R FOG
FALLS CITY     FOG       44  44 100 SE5       29.94R VSB 1
LAMONI         CLEAR     45  39  79 S10       29.96R
DES MOINES     PTCLDY    44  33  65 SE6       29.96R

$$




USA.gov is the U.S. government's official web portal to all federal, state and local government web resources and services.